Location: Passau
(48.5721°N, 13.4363°E)
Time: 17:19:32
(UTC+02:00)

ISS - Visible Passes

Search period start: 18 May 2021 00:00
Search period end: 28 May 2021 00:00
Orbit: 417 x 422 km, 51.6° (Epoch: 18 May)

Date Brightness Start Highest point End Pass type
(mag) Time Alt. Az. Time Alt. Az. Time Alt. Az.
18 May -3.4 01:19:38 10° WNW 01:22:53 63° N 01:22:53 63° N visible
18 May -3.6 21:18:16 10° SW 21:21:31 50° SSE 21:24:49 10° ENE visible
18 May -3.0 22:55:03 10° W 22:58:22 55° N 23:01:42 10° ENE visible
19 May -3.0 00:32:09 10° WNW 00:35:28 54° N 00:36:27 37° ENE visible
19 May -1.2 02:09:02 10° WNW 02:09:22 12° WNW 02:09:22 12° WNW visible
19 May -3.3 22:07:30 10° W 22:10:51 66° NNW 22:14:12 10° ENE visible
19 May -2.8 23:44:38 10° WNW 23:47:56 49° N 23:50:16 17° ENE visible
20 May -2.1 01:21:32 10° WNW 01:23:12 27° WNW 01:23:12 27° WNW visible
20 May -2.8 22:57:07 10° WNW 23:00:24 47° N 23:03:41 10° ENE visible
21 May -3.6 00:34:03 10° WNW 00:37:06 69° NW 00:37:06 69° NW visible
21 May -2.8 22:09:33 10° W 22:12:50 49° N 22:16:08 10° ENE visible
21 May -3.4 23:46:35 10° WNW 23:49:56 64° NNE 23:51:03 37° E visible
22 May -1.2 01:23:31 10° WNW 01:23:58 13° W 01:23:58 13° W visible
22 May -3.0 21:21:58 10° W 21:25:18 55° N 21:28:37 10° ENE visible
22 May -3.1 22:59:05 10° WNW 23:02:24 54° N 23:05:02 15° E visible
23 May -2.5 00:35:57 10° WNW 00:37:58 31° W 00:37:58 31° W visible
23 May -2.8 22:11:34 10° WNW 22:14:51 49° N 22:18:09 10° E visible
23 May -3.9 23:48:26 10° WNW 23:51:49 77° SSW 23:51:59 74° S visible
24 May -3.7 23:00:57 10° WNW 23:04:20 80° NNE 23:06:01 27° ESE visible
25 May -1.4 00:38:05 10° W 00:38:57 15° W 00:38:57 15° W visible
25 May -3.4 22:13:28 10° WNW 22:16:49 64° NNE 22:20:04 11° E visible
25 May -2.8 23:50:24 10° WNW 23:53:00 34° WSW 23:53:00 34° WSW visible
26 May -3.5 23:02:50 10° WNW 23:06:07 53° SSW 23:07:05 37° SSE visible
27 May -3.8 22:15:18 10° WNW 22:18:40 76° SSW 22:21:13 16° ESE visible
27 May -1.5 23:52:51 10° W 23:54:09 15° WSW 23:54:09 15° WSW visible
